www.pogodaiklimat.ru

Погода и климат >> Архив погоды >> Россия >> Чукотка >> Мыс Ванкарем


ПОГОДА на Мысе Ванкарем

  • Прогноз погоды на Мысе Ванкарем
  • Монитор погоды на Мысе Ванкарем
  • Климат города

АРХИВ ПОГОДЫ на Мысе Ванкарем

Время (UTC), дата Ветер
(напр.,м/с)
 
Видим.   Явления Облачность Т
(С)
Тd
(С)
f
(%)
Тe
(С)
Тes
(С)
Комфортность P
(гПа)
Po
(гПа)
Тmin
(С)
Tmax
(С)
R
(мм)
R24
(мм)
S
(см)
03 14.05 С 4
{7}
10 км 10/10 600 м
[Sc]
-6.8 -8.8 86 -13 -13 1015.7 1015.1
06 14.05 С 2
{6}
10 км 10/10 600 м
[Sc]
-7.2 -9.7 82 -12 -12 1015.0 1014.4 -5.4
09 14.05 Ю 1
{4}
10 км 10/6 600 м
[Sc Ac und]
-9.1 -11.1 85 -11 -11 1014.6 1014.0
12 14.05 Ю 1
{4}
10 км 10/3 600 м
[Sc Ac und]
-10.7 -13.5 80 -13 -13 1014.0 1013.4
15 14.05 Ю 1
{3}
10 км 10/0
[Ac und]
-11.9 -14.6 80 -14 -14 1013.6 1013.0
18 14.05 Ю 1
{3}
10 км 10/0
[Ac und]
-11.0 -13.8 80 -13 -12 1013.1 1012.5 -12.7
21 14.05 Ю 1
{3}
10 км 6/0
[Ac trans]
-7.8 -10.5 81 -10 -4 1013.6 1013.0
00 15.05 Ю 1
{2}
20 км ясно -6.0 -9.1 79 -8 +4 1014.1 1013.5
03 15.05 В 1
{3}
20 км ясно -6.9 -9.8 80 -9 -2 1014.6 1014.0
06 15.05 Ю 1
{2}
20 км 3/0
[Ac trans]
-7.5 -10.5 79 -10 -8 1015.5 1014.9 -5.4
09 15.05 штиль 0
{2}
20 км ясно -6.9 -9.8 80 -8 -8 1016.9 1016.3
12 15.05 штиль 0
{2}
20 км 3/0
[Ac lent]
-7.7 -9.9 84 -8 -8 1017.7 1017.1
15 15.05 Ю 1
{1}
20 км 1/0
[Ac lent]
-8.5 -10.8 83 -11 -11 1018.7 1018.1
18 15.05 Ю 1
{2}
20 км 3/0
[Ac lent]
-8.0 -10.2 84 -10 -8 1019.6 1019.0 -9.8
21 15.05 СЗ 4
{6}
10 км 10/0
[Ac und]
-7.4 -10.0 82 -14 -12 1019.6 1019.0
00 16.05 СЗ 2
{4}
10 км 10/0
[Ac und]
-9.8 -19.3 46 -14 -11 1019.5 1018.9
03 16.05 В 1
{2}
10 км 10/0
[Ac und]
-5.2 -15.2 45 -7 -5 1019.4 1018.8
06 16.05 В 1
{2}
20 км 10/0
[Ac und]
-6.4 -8.7 84 -9 -8 1019.3 1018.7 -4.1
09 16.05 ЮВ 1
{2}
20 км 8/0
[Ac trans Ci fib]
-7.5 -10.8 77 -10 -10 1019.1 1018.5
12 16.05 ЮВ 1
{2}
20 км 9/0
[Ac trans]
-8.0 -10.7 81 -10 -10 1018.9 1018.3
15 16.05 ЮВ 1
{2}
20 км 10/0
[Ac und]
-8.9 -11.8 79 -11 -11 1018.8 1018.2
18 16.05 ЮВ 1
{3}
20 км 10/0
[Ac und]
-9.4 -11.9 82 -12 -11 1018.6 1018.0 -10.5
21 16.05 Ю 1
{2}
20 км 8/0
[Ac trans Ci fib]
-8.1 -10.4 83 -10 -4 1018.6 1018.0
00 17.05 ЮВ 3
{5}
20 км 9/0
[Ac trans]
-5.4 -8.3 80 -11 -7 1018.9 1018.3
03 17.05 ЮВ 3
{5}
20 км 9/5 600 м
[Sc Ac trans]
-4.1 -6.4 84 -9 -8 1019.2 1018.6
06 17.05 ЮВ 2
{5}
20 км 10/10 600 м
[Sc]
-4.7 -7.1 83 -9 -9 1019.9 1019.3 -3.0
09 17.05 В 2
{5}
20 км 10/10 600 м
[Sc]
-5.4 -7.5 85 -10 -10 1021.1 1020.5
12 17.05 В 2
{5}
20 км 10/10 600 м
[Sc]
-6.6 -8.6 86 -11 -11 1021.8 1021.2
15 17.05 СВ 2
{4}
20 км 10/10 600 м
[Sc]
-7.8 -10.0 84 -12 -12 1022.8 1022.2
18 17.05 СВ 2
{5}
20 км 10/10 600 м
[Sc]
-8.0 -10.2 84 -12 -12 1020.6 1023.0 -9.4
21 17.05 С 1
{5}
10 км 10/10 600 м
[Sc]
-6.3 -8.2 86 -9 -9 1023.7 1023.1
00 18.05 В 2
{4}
10 км 10/10 600 м
[Sc]
-3.9 -6.1 85 -8 -8 1024.0 1023.4
03 18.05 В 2
{4}
20 км 6/0
[Ac trans Ci fib]
-2.3 -4.8 83 -6 -1 1023.8 1023.2
06 18.05 В 4
{6}
20 км 9/0
[Ac trans Ci fib]
-3.9 -6.1 85 -10 -9 1023.5 1022.9 -1.2
09 18.05 В 3
{6}
20 км 10/3 600 м
[Sc Ac trans Ci fib]
-5.7 -8.3 82 -11 -11 1023.6 1023.0
12 18.05 В 3
{5}
10 км 10/4 600 м
[Sc Ac trans Ci fib]
-5.0 -7.1 85 -10 -10 1023.2 1022.6
15 18.05 ЮВ 2
{4}
10 км 10/6 600 м
[Sc Ac trans Ci fib]
-5.2 -7.7 83 -9 -9 1022.7 1022.1
18 18.05 Ю 2
{5}
10 км 10/1 600 м
[Sc Ac trans Ci fib]
-4.9 -7.0 85 -9 -8 1021.7 1021.1 -5.7
21 18.05 Ю 2
{4}
20 км 3/0
[Ci fib]
-4.4 -7.5 79 -8 -1 1021.4 1020.8
00 19.05 ЮВ 2
{5}
20 км 3/0
[Ci fib]
-2.1 -4.9 81 -6 +4 1020.7 1020.1
03 19.05 В 3
{5}
10 км 8/4 100 м
[Sc Ci fib]
-1.7 -3.8 86 -7 -4 1019.9 1019.3
06 19.05 В 1
{4}
200 м туман ?/? -1.9 -1.9 100 -4 -4 1019.6 1019.0 -0.9
09 19.05 В 1
{4}
200 м туман ?/? -2.4 -2.4 100 -5 -5 1019.3 1018.7
12 19.05 В 1
{3}
200 м туман ?/? -2.6 -2.6 100 -5 -5 1019.3 1018.7
15 19.05 В 1
{3}
200 м туман ?/? -3.0 -3.0 100 -6 -6 1019.1 1018.5
18 19.05 В 1
{3}
200 м туман ?/? -2.8 -2.8 100 -5 -5 1018.6 1018.0 -3.0
21 19.05 СВ 1 200 м туман ?/? -3.0 -3.0 100 -6 -6 1018.5 1017.9 -10.3
00 20.05 СЗ 3
{5}
10 км {туман} 10/10 200 м
[Sc]
-1.9 -3.7 87 -7 -7 1018.2 1017.6
03 20.05 СЗ 5
{7}
10 км 10/10 600 м
[Sc]
-3.7 -5.5 87 -11 -11 1017.8 1017.1
06 20.05 СЗ 5
{8}
10 км 10/10 600 м
[Sc]
-4.4 -6.0 89 -12 -12 1017.0 1016.4 -0.5
09 20.05 СЗ 5
{8}
20 км 9/8 600 м
[Sc Ac trans Ci fib]
-5.6 -7.8 84 -13 -13 1017.2 1016.6
12 20.05 СЗ 5
{8}
20 км 8/0
[Ac trans Ci fib]
-6.2 -8.5 84 -14 -14 1017.1 1016.5
15 20.05 СЗ 4
{7}
20 км 6/0
[Ac trans]
-7.5 -10.1 82 -14 -14 1016.9 1016.3
18 20.05 СЗ 5
{8}
20 км 8/6 600 м
[Sc Ac trans Ci fib]
-7.0 -9.1 85 -14 -14 1016.6 1016.0 -8.4
21 20.05 СЗ 6
{8}
10 км 10/10 600 м
[Sc]
-6.4 -8.3 86 -14 -14 1016.2 1015.6
00 21.05 СЗ 7
{9}
10 км 10/10 200 м
[Sc]
-5.2 -7.3 85 -14 -14 1015.7 1015.1

 

Местоположение метеостанции Мыс Ванкарем (Чукотка, Россия): широта 67.83 долгота -175.00 высота над уровнем моря 5 м.

В архиве по умолчанию представлена погода на Мысе Ванкарем за последнюю неделю. Архивные данные за месяц целиком и за предыдущие месяцы, начиная с января 2011 года, Вы можете получить, выбрав интересующий диапазон дат из раскрывающегося списка и нажав кнопку "Ввод!".


*Определитесь, кто Вы:
робот инопланетянин человек

Внимание! Время в таблицах - всемирное. Для получения местного времени необходимо прибавить поправку, которая на Мысе Ванкарем равна 12 ч.

Смотрите также архив погоды в соседних городах и на ближайших метеорологических станциях:

Погода на Мысе Шмидта (Чукотка, Россия) (201 км)
Погода в Эгвекиноте (Чукотка, Россия) (239 км)
Погода в Уэлене (Чукотка, Россия) (320 км)
Погода на Острове Врангеля (Чукотка, Россия) (369 км)

Пояснения к столбцам:

Ветер - указаны скорость ветра в м/с - средняя за 10 мин, порывы в срок и между сроками (в фигурных скобках) и направление, откуда дует ветер: С - северный, СВ - северо-восточный, В - восточный, ЮВ - юго-восточный, Ю - южный, ЮЗ - юго-западный, З - западный, СЗ - северо-западный.
Видимость - горизонтальная дальность видимости в метрах или километрах. При видимости от 1 до 10 км при отсутствии осадков обычно наблюдается дымка, при ухудшении видимости до 1 км и менее - туман. В сухую погоду видимость может ухудшаться дымом, пылью или мглою.
Явления - указаны атмосферные явления, наблюдавшиеся в срок или в последний час перед сроком; фигурными скобками обозначены явления, наблюдавшиеся между сроками (за 1-3 часа до срока); квадратными скобками обозначены град или гололедные отложения с указанием их диаметра в мм.
Облачность - указаны через наклонную черту общая и нижняя облачность в баллах и высота нижней границы облаков в метрах; квадратными скобками обозначены формы облаков: Ci - перистые, Cs - перисто-слоистые, Cc - перисто-кучевые, Ac - высококучевые, As - высокослоистые, Sc - слоисто-кучевые, Ns - слоисто-дождевые, Cu - кучевые, Cb - кучево-дождевые. Подробнее классификацию облаков см. в Атласе облаков (PDF).
T - Температура воздуха - температура, измеренная на высоте 2 м над землей.
Td - Температура точки росы - температура, при понижении до которой содержащийся в воздухе водяной пар достигнет насыщения.
f - Относительная влажность воздуха - влажноcть воздуха, измеренная на высоте 2 м над землей.
Te - Эффективная температура - температура, которую ощущает одетый по сезону человек в тени. Характеристика душности погоды. При расчете учитывается влияние влажности воздуха и скорости ветра на теплоощущения человека.
Tes - Эффективная температура на солнце - температура, которую ощущает человек, с поправкой на солнечный нагрев. Характеристика знойности погоды. Зависит от высоты солнца над горизонтом, облачности и скорости ветра. Ночью, в пасмурную погоду, а также при ветре 12 м/с и более поправка равна нулю.
P - Атмосферное давление - приведенное к уровню моря атмосферное давление.
Po - Атмосферное давление - измеренное на уровне метеостанции атмосферное давление.
Tmin - Минимальная температура - минимум температуры воздуха на высоте 2 м над землей.
Tmax - Максимальная температура - максимум температуры воздуха на высоте 2 м над землей.
R - Количество осадков - Количество выпавших осадков за период времени, мм. При наведении курсора мыши на число - период времени, за который выпало указанное количество осадков.
R24 - Количество осадков - Количество выпавших осадков за 24 часа, мм.
S - Снежный покров - Высота снежного покрова, см. При наведении курсора мыши на число - состояние снежного покрова и степень покрытия местности в баллах.